^^

..:: Storico WU ::..




Lo storico viene creato da WUnderground con i dati che la stazione Meteomincio invia al loro server. L' aggiornamento viene fatto ogni 5 minuti circa, tuttavia possono esserci intervalli pił ampi a causa di errori, interruzioni di servizio o problemi nell' invio tramite FTP.


Storico stazione MeteoMincio
Giorno Sommario per Gennaio 28, 2022 Unità:  Inglese    Metrico   Entrambi
Giorno Settimana Mese Anno
  Max: Min: Media:
Temperatura: 41 °F 30.2 °F 35.8 °F
Dew Point: 37.4 °F 30.2 °F 34.9 °F
Umidità: 99% 91% 97%
Velocità vento: 11.2mph 0mph 5mph
Raffica: 13mph - -
Direzione- - SW
Pressione: 30.4 in 30.2 in -
Precipitazioni: 0 in    
 
 
Tabulato Dati per Gennaio 28, 2022
Ora Temperatura Dew Point Pressione Direzione Velocità vento Raffica Umidità Intensità pioggia (oraria) Info solare Situazione
00:04 35.6 °F 35.6 °F 30.3 in West 5.6 mph 8.1 mph 97% 0 in 0.00 W/m2 unknown
00:09 35.6 °F 35.6 °F 30.3 in West 5 mph 6.8 mph 97% 0 in 0.00 W/m2 unknown
00:14 35.6 °F 35.6 °F 30.3 in WNW 5 mph 6.2 mph 98% 0 in 0.00 W/m2 unknown
00:19 35.6 °F 35.6 °F 30.3 in West 4.3 mph 6.2 mph 98% 0 in 0.00 W/m2 unknown
00:24 35.6 °F 35.6 °F 30.3 in WSW 5.6 mph 6.8 mph 98% 0 in 0.00 W/m2 unknown
00:29 35.6 °F 35.6 °F 30.3 in WSW 6.2 mph 6.8 mph 98% 0 in 0.00 W/m2 unknown
00:34 35.6 °F 35.6 °F 30.3 in WSW 5.6 mph 6.8 mph 98% 0 in 0.00 W/m2 unknown
00:39 35.6 °F 35.6 °F 30.3 in West 6.2 mph 8.1 mph 98% 0 in 0.00 W/m2 unknown
00:44 35.6 °F 35.6 °F 30.3 in West 6.2 mph 8.1 mph 97% 0 in 0.00 W/m2 unknown
00:49 35.6 °F 35.6 °F 30.3 in West 7.5 mph 8.7 mph 97% 0 in 0.00 W/m2 unknown
00:54 35.6 °F 35.6 °F 30.3 in West 7.5 mph 9.3 mph 98% 0 in 0.00 W/m2 unknown
00:59 35.6 °F 35.6 °F 30.3 in West 6.2 mph 8.7 mph 98% 0 in 0.00 W/m2 unknown
01:04 35.6 °F 35.6 °F 30.3 in WSW 6.2 mph 8.1 mph 98% 0 in 0.00 W/m2 unknown
01:09 35.6 °F 35.6 °F 30.3 in West 5 mph 8.1 mph 98% 0 in 0.00 W/m2 unknown
01:14 35.6 °F 35.6 °F 30.3 in West 6.2 mph 8.1 mph 98% 0 in 0.00 W/m2 unknown
01:19 35.6 °F 35.6 °F 30.3 in West 6.2 mph 8.1 mph 98% 0 in 0.00 W/m2 unknown
01:24 35.6 °F 35.6 °F 30.3 in West 7.5 mph 10.6 mph 98% 0 in 0.00 W/m2 unknown
01:29 35.6 °F 35.6 °F 30.3 in WSW 6.2 mph 9.9 mph 98% 0 in 0.00 W/m2 unknown
01:34 35.6 °F 35.6 °F 30.3 in WSW 6.8 mph 9.3 mph 98% 0 in 0.00 W/m2 unknown
01:39 35.6 °F 35.6 °F 30.3 in WSW 6.8 mph 8.7 mph 98% 0 in 0.00 W/m2 unknown
01:44 35.6 °F 33.8 °F 30.3 in WSW 7.5 mph 9.3 mph 98% 0 in 0.00 W/m2 unknown
01:49 35.6 °F 33.8 °F 30.3 in WSW 6.8 mph 9.3 mph 98% 0 in 0.00 W/m2 unknown
01:54 35.6 °F 33.8 °F 30.3 in WSW 6.2 mph 8.7 mph 98% 0 in 0.00 W/m2 unknown
01:59 35.6 °F 33.8 °F 30.3 in WSW 5.6 mph 8.1 mph 98% 0 in 0.00 W/m2 unknown
02:04 35.6 °F 33.8 °F 30.3 in WSW 6.2 mph 8.1 mph 98% 0 in 0.00 W/m2 unknown
02:09 35.6 °F 33.8 °F 30.3 in WSW 7.5 mph 9.3 mph 98% 0 in 0.00 W/m2 unknown
02:14 35.6 °F 33.8 °F 30.3 in SW 6.2 mph 9.3 mph 98% 0 in 0.00 W/m2 unknown
02:19 35.6 °F 33.8 °F 30.3 in WSW 8.1 mph 9.3 mph 98% 0 in 0.00 W/m2 unknown
02:24 35.6 °F 33.8 °F 30.3 in SW 6.2 mph 8.7 mph 98% 0 in 0.00 W/m2 unknown
02:29 35.6 °F 33.8 °F 30.3 in SW 6.8 mph 8.1 mph 98% 0 in 0.00 W/m2 unknown
02:34 35.6 °F 33.8 °F 30.3 in WSW 6.2 mph 8.1 mph 98% 0 in 0.00 W/m2 unknown
02:39 35.6 °F 33.8 °F 30.3 in WSW 6.8 mph 9.3 mph 98% 0 in 0.00 W/m2 unknown
02:44 35.6 °F 33.8 °F 30.3 in WSW 8.1 mph 11.8 mph 98% 0 in 0.00 W/m2 unknown
02:49 35.6 °F 33.8 °F 30.3 in WSW 6.2 mph 11.8 mph 98% 0 in 0.00 W/m2 unknown
02:54 35.6 °F 33.8 °F 30.3 in WSW 6.2 mph 8.1 mph 98% 0 in 0.00 W/m2 unknown
02:59 35.6 °F 35.6 °F 30.3 in WSW 5 mph 8.1 mph 98% 0 in 0.00 W/m2 unknown
03:04 35.6 °F 35.6 °F 30.3 in WSW 6.2 mph 8.1 mph 98% 0 in 0.00 W/m2 unknown
03:09 35.6 °F 35.6 °F 30.3 in West 6.8 mph 9.9 mph 98% 0 in 0.00 W/m2 unknown
03:14 35.6 °F 35.6 °F 30.3 in West 7.5 mph 10.6 mph 98% 0 in 0.00 W/m2 unknown
03:19 35.6 °F 35.6 °F 30.3 in West 6.8 mph 9.9 mph 98% 0 in 0.00 W/m2 unknown
03:24 35.6 °F 33.8 °F 30.2 in West 8.7 mph 11.8 mph 98% 0 in 0.00 W/m2 unknown
03:29 35.6 °F 33.8 °F 30.2 in West 8.1 mph 11.8 mph 98% 0 in 0.00 W/m2 unknown
03:34 35.6 °F 33.8 °F 30.2 in West 9.3 mph 11.8 mph 98% 0 in 0.00 W/m2 unknown
03:39 33.8 °F 33.8 °F 30.2 in West 8.7 mph 11.8 mph 98% 0 in 0.00 W/m2 unknown
03:44 33.8 °F 33.8 °F 30.2 in West 8.7 mph 11.8 mph 98% 0 in 0.00 W/m2 unknown
03:49 33.8 °F 33.8 °F 30.2 in WSW 9.3 mph 11.8 mph 98% 0 in 0.00 W/m2 unknown
03:54 33.8 °F 33.8 °F 30.2 in West 7.5 mph 11.8 mph 98% 0 in 0.00 W/m2 unknown
03:59 33.8 °F 33.8 °F 30.2 in West 8.7 mph 13 mph 98% 0 in 0.00 W/m2 unknown
04:04 33.8 °F 33.8 °F 30.2 in West 9.9 mph 13 mph 98% 0 in 0.00 W/m2 unknown
04:09 33.8 °F 33.8 °F 30.2 in West 9.9 mph 11.8 mph 98% 0 in 0.00 W/m2 unknown
04:14 33.8 °F 33.8 °F 30.2 in West 9.3 mph 11.8 mph 98% 0 in 0.00 W/m2 unknown
04:19 33.8 °F 33.8 °F 30.2 in West 8.1 mph 11.8 mph 98% 0 in 0.00 W/m2 unknown
04:24 33.8 °F 33.8 °F 30.2 in West 7.5 mph 9.9 mph 98% 0 in 0.00 W/m2 unknown
04:29 33.8 °F 33.8 °F 30.2 in West 6.8 mph 9.9 mph 98% 0 in 0.00 W/m2 unknown
04:34 33.8 °F 33.8 °F 30.2 in WSW 7.5 mph 10.6 mph 98% 0 in 0.00 W/m2 unknown
04:39 33.8 °F 33.8 °F 30.2 in West 6.8 mph 10.6 mph 98% 0 in 0.00 W/m2 unknown
04:44 33.8 °F 33.8 °F 30.2 in WSW 8.7 mph 11.8 mph 98% 0 in 0.00 W/m2 unknown
04:49 35.6 °F 33.8 °F 30.2 in West 11.2 mph 13 mph 98% 0 in 0.00 W/m2 unknown
04:54 35.6 °F 33.8 °F 30.2 in West 9.3 mph 13 mph 98% 0 in 0.00 W/m2 unknown
04:59 35.6 °F 33.8 °F 30.2 in West 6.8 mph 11.8 mph 98% 0 in 0.00 W/m2 unknown
05:04 35.6 °F 33.8 °F 30.2 in West 7.5 mph 10.6 mph 98% 0 in 0.00 W/m2 unknown
05:09 35.6 °F 33.8 °F 30.2 in West 6.8 mph 10.6 mph 98% 0 in 0.00 W/m2 unknown
05:14 35.6 °F 35.6 °F 30.2 in West 6.2 mph 9.9 mph 99% 0 in 0.00 W/m2 unknown
05:19 35.6 °F 35.6 °F 30.2 in West 8.1 mph 11.8 mph 99% 0 in 0.00 W/m2 unknown
05:24 35.6 °F 35.6 °F 30.2 in West 9.3 mph 11.8 mph 99% 0 in 0.00 W/m2 unknown
05:29 35.6 °F 35.6 °F 30.2 in West 8.7 mph 11.8 mph 99% 0 in 0.00 W/m2 unknown
05:34 35.6 °F 35.6 °F 30.2 in West 8.1 mph 11.8 mph 99% 0 in 0.00 W/m2 unknown
05:39 35.6 °F 35.6 °F 30.2 in West 6.2 mph 11.8 mph 99% 0 in 0.00 W/m2 unknown
05:44 35.6 °F 35.6 °F 30.2 in West 6.2 mph 8.1 mph 99% 0 in 0.00 W/m2 unknown
05:49 35.6 °F 35.6 °F 30.2 in West 6.2 mph 8.1 mph 99% 0 in 0.00 W/m2 unknown
05:54 35.6 °F 35.6 °F 30.2 in West 8.7 mph 11.8 mph 99% 0 in 0.00 W/m2 unknown
05:59 35.6 °F 35.6 °F 30.2 in West 6.2 mph 11.8 mph 99% 0 in 0.00 W/m2 unknown
06:04 35.6 °F 35.6 °F 30.2 in West 7.5 mph 10.6 mph 99% 0 in 0.00 W/m2 unknown
06:09 35.6 °F 35.6 °F 30.2 in West 6.2 mph 9.9 mph 99% 0 in 0.00 W/m2 unknown
06:14 35.6 °F 35.6 °F 30.2 in West 6.2 mph 9.3 mph 99% 0 in 0.00 W/m2 unknown
06:19 35.6 °F 35.6 °F 30.2 in West 6.8 mph 9.3 mph 99% 0 in 0.00 W/m2 unknown
06:24 35.6 °F 35.6 °F 30.2 in West 5.6 mph 6.8 mph 99% 0 in 0.00 W/m2 unknown
06:29 35.6 °F 35.6 °F 30.2 in WNW 6.8 mph 8.1 mph 99% 0 in 0.00 W/m2 unknown
06:34 35.6 °F 35.6 °F 30.2 in West 8.1 mph 11.8 mph 99% 0 in 0.00 W/m2 unknown
06:39 35.6 °F 35.6 °F 30.2 in West 8.1 mph 11.8 mph 99% 0 in 0.00 W/m2 unknown
06:44 35.6 °F 35.6 °F 30.2 in West 7.5 mph 11.8 mph 99% 0 in 0.00 W/m2 unknown
06:49 35.6 °F 35.6 °F 30.2 in West 6.2 mph 11.8 mph 99% 0 in 0.00 W/m2 unknown
06:54 35.6 °F 35.6 °F 30.2 in West 7.5 mph 10.6 mph 99% 0 in 0.00 W/m2 unknown
06:59 35.6 °F 35.6 °F 30.2 in West 6.8 mph 9.9 mph 99% 0 in 0.00 W/m2 unknown
07:04 35.6 °F 35.6 °F 30.2 in West 3.7 mph 8.7 mph 99% 0 in 0.00 W/m2 unknown
07:09 35.6 °F 33.8 °F 30.2 in WNW 3.7 mph 3.7 mph 99% 0 in 0.00 W/m2 unknown
07:14 35.6 °F 33.8 °F 30.2 in West 4.3 mph 6.2 mph 98% 0 in 0.00 W/m2 unknown
07:19 35.6 °F 33.8 °F 30.2 in WNW 4.3 mph 6.2 mph 99% 0 in 0.00 W/m2 unknown
07:24 35.6 °F 33.8 °F 30.2 in West 3.7 mph 6.2 mph 99% 0 in 0.00 W/m2 unknown
07:29 33.8 °F 33.8 °F 30.2 in WSW 5 mph 6.2 mph 99% 0 in 0.00 W/m2 unknown
07:34 33.8 °F 33.8 °F 30.2 in WSW 4.3 mph 6.2 mph 99% 0 in 0.00 W/m2 unknown
07:39 33.8 °F 33.8 °F 30.2 in West 5 mph 6.2 mph 99% 0 in 0.00 W/m2 unknown
07:44 33.8 °F 33.8 °F 30.2 in WSW 3.7 mph 6.2 mph 99% 0 in 0.00 W/m2 unknown
07:49 33.8 °F 33.8 °F 30.2 in SW 3.7 mph 5 mph 99% 0 in 0.00 W/m2 unknown
07:54 33.8 °F 33.8 °F 30.2 in WNW 3.7 mph 6.2 mph 98% 0 in 0.00 W/m2 unknown
07:59 33.8 °F 33.8 °F 30.3 in WNW 3.1 mph 5 mph 98% 0 in 0.00 W/m2 unknown
08:04 33.8 °F 33.8 °F 30.3 in West 3.1 mph 5 mph 98% 0 in 0.00 W/m2 unknown
08:09 33.8 °F 33.8 °F 30.3 in WNW 2.5 mph 3.7 mph 98% 0 in 0.00 W/m2 unknown
08:14 33.8 °F 33.8 °F 30.3 in Calm   3.1 mph 98% 0 in 0.00 W/m2 unknown
08:19 33.8 °F 33.8 °F 30.3 in Calm   1.2 mph 98% 0 in 0.00 W/m2 unknown
08:24 33.8 °F 33.8 °F 30.3 in WSW 1.9 mph 3.7 mph 98% 0 in 11.00 W/m2 unknown
08:29 33.8 °F 33.8 °F 30.3 in WSW 1.2 mph 3.7 mph 98% 0 in 9.00 W/m2 unknown
08:34 33.8 °F 33.8 °F 30.3 in WSW 1.9 mph 3.7 mph 98% 0 in 7.00 W/m2 unknown
08:39 33.8 °F 33.8 °F 30.3 in SSW 2.5 mph 3.7 mph 98% 0 in 14.00 W/m2 unknown
08:44 33.8 °F 33.8 °F 30.3 in SSW 1.9 mph 3.7 mph 98% 0 in 25.00 W/m2 unknown
08:49 33.8 °F 33.8 °F 30.3 in SSE 1.9 mph 3.7 mph 98% 0 in 11.00 W/m2 unknown
08:54 33.8 °F 33.8 °F 30.3 in SSW 1.9 mph 3.1 mph 98% 0 in 26.00 W/m2 unknown
08:59 33.8 °F 33.8 °F 30.3 in SSW 1.9 mph 2.5 mph 98% 0 in 32.00 W/m2 unknown
09:04 33.8 °F 33.8 °F 30.3 in SSW 1.2 mph 2.5 mph 98% 0 in 37.00 W/m2 unknown
09:09 33.8 °F 33.8 °F 30.3 in SSW 1.9 mph 3.7 mph 98% 0 in 49.00 W/m2 unknown
09:14 33.8 °F 33.8 °F 30.3 in South 1.9 mph 3.1 mph 99% 0 in 40.00 W/m2 unknown
09:19 35.6 °F 33.8 °F 30.3 in SE 4.3 mph 6.2 mph 99% 0 in 79.00 W/m2 unknown
09:24 35.6 °F 33.8 °F 30.3 in SW 1.9 mph 6.2 mph 99% 0 in 40.00 W/m2 unknown
09:29 35.6 °F 33.8 °F 30.3 in SSE 2.5 mph 3.7 mph 99% 0 in 40.00 W/m2 unknown
09:34 35.6 °F 33.8 °F 30.3 in SE 2.5 mph 3.7 mph 99% 0 in 47.00 W/m2 unknown
09:39 35.6 °F 35.6 °F 30.3 in ESE 3.7 mph 5 mph 99% 0 in 51.00 W/m2 unknown
09:44 35.6 °F 35.6 °F 30.3 in SE 3.1 mph 3.7 mph 99% 0 in 47.00 W/m2 unknown
09:49 35.6 °F 35.6 °F 30.3 in South 3.1 mph 3.7 mph 99% 0 in 69.00 W/m2 unknown
09:54 35.6 °F 35.6 °F 30.3 in SSE 3.1 mph 3.7 mph 99% 0 in 83.00 W/m2 unknown
09:59 35.6 °F 35.6 °F 30.3 in ESE 5 mph 6.8 mph 99% 0 in 83.00 W/m2 unknown
10:04 35.6 °F 35.6 °F 30.3 in ESE 4.3 mph 6.8 mph 99% 0 in 70.00 W/m2 unknown
10:09 35.6 °F 35.6 °F 30.3 in ESE 6.8 mph 8.7 mph 99% 0 in 77.00 W/m2 unknown
10:14 35.6 °F 35.6 °F 30.3 in East 8.1 mph 9.3 mph 99% 0 in 69.00 W/m2 unknown
10:19 35.6 °F 35.6 °F 30.3 in East 3.7 mph 5 mph 99% 0 in 60.00 W/m2 unknown
10:24 37.4 °F 35.6 °F 30.3 in East 5.6 mph 6.8 mph 99% 0 in 69.00 W/m2 unknown
10:29 37.4 °F 37.4 °F 30.3 in ESE 4.3 mph 6.8 mph 99% 0 in 62.00 W/m2 unknown
10:34 37.4 °F 37.4 °F 30.3 in ESE 5.6 mph 6.8 mph 99% 0 in 76.00 W/m2 unknown
10:39 37.4 °F 37.4 °F 30.4 in ESE 7.5 mph 9.3 mph 99% 0 in 74.00 W/m2 unknown
10:44 37.4 °F 37.4 °F 30.4 in ESE 8.7 mph 10.6 mph 99% 0 in 74.00 W/m2 unknown
10:49 37.4 °F 37.4 °F 30.4 in SE 8.1 mph 9.9 mph 99% 0 in 100.00 W/m2 unknown
10:54 37.4 °F 37.4 °F 30.4 in ESE 7.5 mph 9.3 mph 99% 0 in 144.00 W/m2 unknown
10:59 37.4 °F 37.4 °F 30.4 in ESE 8.1 mph 9.3 mph 99% 0 in 144.00 W/m2 unknown
11:04 37.4 °F 37.4 °F 30.4 in SE 6.2 mph 9.3 mph 98% 0 in 229.00 W/m2 unknown
11:09 39.2 °F 37.4 °F 30.4 in SE 5 mph 8.7 mph 96% 0 in 234.00 W/m2 unknown
11:14 39.2 °F 37.4 °F 30.4 in SE 7.5 mph 11.8 mph 95% 0 in 408.00 W/m2 unknown
11:19 39.2 °F 37.4 °F 30.4 in SE 6.8 mph 11.8 mph 94% 0 in 355.00 W/m2 unknown
11:24 39.2 °F 37.4 °F 30.4 in SSE 5.6 mph 9.9 mph 93% 0 in 378.00 W/m2 unknown
11:29 39.2 °F 37.4 °F 30.4 in SE 8.1 mph 11.8 mph 93% 0 in 332.00 W/m2 unknown
11:34 39.2 °F 37.4 °F 30.4 in ESE 6.8 mph 11.8 mph 92% 0 in 308.00 W/m2 unknown
11:39 39.2 °F 37.4 °F 30.4 in SE 8.1 mph 11.8 mph 92% 0 in 225.00 W/m2 unknown
11:44 39.2 °F 37.4 °F 30.4 in SE 6.8 mph 11.8 mph 92% 0 in 185.00 W/m2 unknown
11:49 39.2 °F 37.4 °F 30.4 in SE 5.6 mph 9.9 mph 92% 0 in 227.00 W/m2 unknown
11:54 39.2 °F 37.4 °F 30.4 in South 8.7 mph 13 mph 91% 0 in 181.00 W/m2 unknown
11:59 39.2 °F 37.4 °F 30.4 in SSE 5 mph 13 mph 92% 0 in 169.00 W/m2 unknown
12:04 39.2 °F 37.4 °F 30.4 in South 8.1 mph 13 mph 92% 0 in 171.00 W/m2 unknown
12:09 39.2 °F 37.4 °F 30.4 in South 9.9 mph 13 mph 93% 0 in 144.00 W/m2 unknown
12:14 39.2 °F 37.4 °F 30.4 in SSW 8.1 mph 13 mph 93% 0 in 185.00 W/m2 unknown
12:19 39.2 °F 37.4 °F 30.4 in SSW 8.1 mph 10.6 mph 93% 0 in 158.00 W/m2 unknown
12:24 39.2 °F 37.4 °F 30.4 in SSW 7.5 mph 10.6 mph 94% 0 in 105.00 W/m2 unknown
12:29 39.2 °F 37.4 °F 30.4 in South 6.8 mph 9.9 mph 94% 0 in 148.00 W/m2 unknown
12:34 39.2 °F 37.4 °F 30.4 in South 6.2 mph 8.7 mph 94% 0 in 167.00 W/m2 unknown
12:39 39.2 °F 37.4 °F 30.4 in SW 6.2 mph 8.7 mph 94% 0 in 123.00 W/m2 unknown
12:44 39.2 °F 37.4 °F 30.4 in SW 8.1 mph 11.8 mph 94% 0 in 206.00 W/m2 unknown
12:49 39.2 °F 37.4 °F 30.4 in WSW 8.1 mph 11.8 mph 94% 0 in 246.00 W/m2 unknown
12:54 39.2 °F 37.4 °F 30.4 in WSW 8.1 mph 10.6 mph 94% 0 in 264.00 W/m2 unknown
12:59 39.2 °F 37.4 °F 30.4 in WSW 6.2 mph 9.9 mph 93% 0 in 206.00 W/m2 unknown
13:04 39.2 °F 37.4 °F 30.4 in West 5.6 mph 8.1 mph 93% 0 in 193.00 W/m2 unknown
13:09 39.2 °F 37.4 °F 30.4 in West 5.6 mph 8.1 mph 93% 0 in 193.00 W/m2 unknown
13:14 39.2 °F 37.4 °F 30.4 in SW 5.6 mph 8.1 mph 94% 0 in 148.00 W/m2 unknown
13:19 39.2 °F 37.4 °F 30.4 in SSW 5.6 mph 6.8 mph 93% 0 in 148.00 W/m2 unknown
13:24 39.2 °F 37.4 °F 30.4 in WSW 5 mph 6.8 mph 94% 0 in 102.00 W/m2 unknown
13:29 39.2 °F 37.4 °F 30.4 in SW 6.2 mph 6.8 mph 94% 0 in 125.00 W/m2 unknown
13:34 39.2 °F 37.4 °F 30.3 in WSW 5 mph 6.8 mph 94% 0 in 141.00 W/m2 unknown
13:39 39.2 °F 37.4 °F 30.3 in West 5.6 mph 8.1 mph 93% 0 in 134.00 W/m2 unknown
13:44 39.2 °F 37.4 °F 30.3 in West 6.2 mph 9.3 mph 93% 0 in 156.00 W/m2 unknown
13:49 39.2 °F 37.4 °F 30.3 in West 5 mph 8.7 mph 93% 0 in 151.00 W/m2 unknown
13:54 39.2 °F 37.4 °F 30.3 in West 5 mph 6.8 mph 93% 0 in 113.00 W/m2 unknown
13:59 39.2 °F 37.4 °F 30.3 in WSW 5.6 mph 6.8 mph 94% 0 in 134.00 W/m2 unknown
14:04 39.2 °F 37.4 °F 30.3 in WSW 6.8 mph 8.1 mph 93% 0 in 139.00 W/m2 unknown
14:09 39.2 °F 37.4 °F 30.3 in NW 3.7 mph 8.1 mph 93% 0 in 128.00 W/m2 unknown
14:14 41 °F 37.4 °F 30.3 in NW 3.7 mph 6.2 mph 93% 0 in 104.00 W/m2 unknown
14:19 41 °F 37.4 °F 30.3 in NW 3.1 mph 6.2 mph 92% 0 in 155.00 W/m2 unknown
14:24 39.2 °F 37.4 °F 30.3 in North 2.5 mph 5 mph 93% 0 in 97.00 W/m2 unknown
14:29 39.2 °F 37.4 °F 30.3 in NNW 4.3 mph 6.8 mph 93% 0 in 102.00 W/m2 unknown
14:34 39.2 °F 37.4 °F 30.3 in WNW 3.7 mph 6.8 mph 92% 0 in 118.00 W/m2 unknown
14:39 39.2 °F 37.4 °F 30.3 in NW 1.9 mph 5 mph 93% 0 in 118.00 W/m2 unknown
14:44 39.2 °F 37.4 °F 30.3 in NNW 2.5 mph 3.7 mph 93% 0 in 109.00 W/m2 unknown
14:49 39.2 °F 37.4 °F 30.3 in NW 4.3 mph 6.2 mph 93% 0 in 123.00 W/m2 unknown
14:54 39.2 °F 37.4 °F 30.3 in NW 3.7 mph 5.6 mph 93% 0 in 105.00 W/m2 unknown
14:59 39.2 °F 37.4 °F 30.3 in WNW 5 mph 6.8 mph 92% 0 in 125.00 W/m2 unknown
15:04 39.2 °F 37.4 °F 30.3 in West 5 mph 6.8 mph 93% 0 in 123.00 W/m2 unknown
15:09 39.2 °F 37.4 °F 30.3 in WNW 5 mph 6.8 mph 93% 0 in 123.00 W/m2 unknown
15:14 39.2 °F 37.4 °F 30.3 in West 4.3 mph 6.2 mph 93% 0 in 116.00 W/m2 unknown
15:19 39.2 °F 37.4 °F 30.3 in NW 3.1 mph 6.2 mph 93% 0 in 135.00 W/m2 unknown
15:24 41 °F 37.4 °F 30.3 in NW 3.7 mph 5 mph 93% 0 in 135.00 W/m2 unknown
15:29 41 °F 37.4 °F 30.3 in West 5.6 mph 6.8 mph 92% 0 in 139.00 W/m2 unknown
15:34 41 °F 37.4 °F 30.3 in West 6.2 mph 8.1 mph 92% 0 in 137.00 W/m2 unknown
15:39 39.2 °F 37.4 °F 30.3 in West 6.2 mph 8.1 mph 92% 0 in 104.00 W/m2 unknown
15:44 39.2 °F 37.4 °F 30.3 in WSW 6.2 mph 8.1 mph 93% 0 in 125.00 W/m2 unknown
15:49 39.2 °F 37.4 °F 30.3 in WSW 6.8 mph 9.3 mph 93% 0 in 141.00 W/m2 unknown
15:54 39.2 °F 37.4 °F 30.3 in West 6.2 mph 8.7 mph 93% 0 in 127.00 W/m2 unknown
15:59 39.2 °F 37.4 °F 30.3 in WSW 5.6 mph 6.8 mph 93% 0 in 95.00 W/m2 unknown
16:04 39.2 °F 37.4 °F 30.3 in WSW 5 mph 6.8 mph 93% 0 in 107.00 W/m2 unknown
16:09 39.2 °F 37.4 °F 30.3 in WSW 5 mph 6.8 mph 93% 0 in 72.00 W/m2 unknown
16:14 39.2 °F 37.4 °F 30.3 in WNW 3.1 mph 6.8 mph 93% 0 in 46.00 W/m2 unknown
16:19 39.2 °F 37.4 °F 30.3 in NW 4.3 mph 5.6 mph 93% 0 in 35.00 W/m2 unknown
16:24 39.2 °F 37.4 °F 30.3 in West 2.5 mph 6.2 mph 94% 0 in 39.00 W/m2 unknown
16:29 39.2 °F 37.4 °F 30.3 in SSW 2.5 mph 3.7 mph 94% 0 in 62.00 W/m2 unknown
16:34 39.2 °F 37.4 °F 30.3 in WNW 2.5 mph 3.7 mph 94% 0 in 35.00 W/m2 unknown
16:39 39.2 °F 37.4 °F 30.3 in West 4.3 mph 5 mph 94% 0 in 28.00 W/m2 unknown
16:44 39.2 °F 37.4 °F 30.3 in WNW 3.1 mph 5 mph 94% 0 in 37.00 W/m2 unknown
16:49 39.2 °F 37.4 °F 30.3 in NW 3.1 mph 5 mph 94% 0 in 25.00 W/m2 unknown
16:54 37.4 °F 37.4 °F 30.3 in West 3.7 mph 5 mph 94% 0 in 14.00 W/m2 unknown
16:59 37.4 °F 37.4 °F 30.3 in WSW 2.5 mph 3.7 mph 94% 0 in 14.00 W/m2 unknown
17:04 37.4 °F 35.6 °F 30.3 in WSW 1.2 mph 3.1 mph 94% 0 in 14.00 W/m2 unknown
17:09 37.4 °F 35.6 °F 30.3 in West 1.9 mph 2.5 mph 95% 0 in 12.00 W/m2 unknown
17:14 37.4 °F 35.6 °F 30.3 in West 1.9 mph 2.5 mph 95% 0 in 9.00 W/m2 unknown
17:19 37.4 °F 35.6 °F 30.3 in West 0.6 mph 2.5 mph 95% 0 in 5.00 W/m2 unknown
17:24 37.4 °F 35.6 °F 30.3 in WNW 1.9 mph 3.7 mph 95% 0 in 0.00 W/m2 unknown
17:29 37.4 °F 35.6 °F 30.3 in WNW 2.5 mph 3.7 mph 95% 0 in 0.00 W/m2 unknown
17:34 37.4 °F 35.6 °F 30.3 in WNW 3.7 mph 5 mph 95% 0 in 0.00 W/m2 unknown
17:39 35.6 °F 35.6 °F 30.3 in WNW 4.3 mph 6.2 mph 95% 0 in 0.00 W/m2 unknown
17:44 35.6 °F 35.6 °F 30.3 in West 5 mph 6.2 mph 95% 0 in 0.00 W/m2 unknown
17:49 35.6 °F 35.6 °F 30.3 in West 3.7 mph 4.3 mph 96% 0 in 0.00 W/m2 unknown
17:54 35.6 °F 35.6 °F 30.3 in SE 3.1 mph 5 mph 96% 0 in 0.00 W/m2 unknown
17:59 35.6 °F 35.6 °F 30.3 in SW 5.6 mph 6.2 mph 96% 0 in 0.00 W/m2 unknown
18:04 35.6 °F 33.8 °F 30.3 in SW 5 mph 6.2 mph 96% 0 in 0.00 W/m2 unknown
18:09 35.6 °F 33.8 °F 30.3 in WSW 2.5 mph 5 mph 96% 0 in 0.00 W/m2 unknown
18:14 35.6 °F 33.8 °F 30.3 in WSW 3.1 mph 3.7 mph 96% 0 in 0.00 W/m2 unknown
18:19 35.6 °F 33.8 °F 30.3 in WSW 3.1 mph 3.7 mph 96% 0 in 0.00 W/m2 unknown
18:24 35.6 °F 33.8 °F 30.3 in WSW 3.7 mph 5 mph 96% 0 in 0.00 W/m2 unknown
18:29 35.6 °F 33.8 °F 30.3 in WSW 3.1 mph 5 mph 96% 0 in 0.00 W/m2 unknown
18:34 35.6 °F 33.8 °F 30.3 in WSW 2.5 mph 3.7 mph 96% 0 in 0.00 W/m2 unknown
18:39 35.6 °F 33.8 °F 30.3 in WSW 3.1 mph 3.7 mph 96% 0 in 0.00 W/m2 unknown
18:44 35.6 °F 33.8 °F 30.3 in West 3.7 mph 5 mph 96% 0 in 0.00 W/m2 unknown
18:49 35.6 °F 33.8 °F 30.3 in WSW 3.7 mph 5 mph 96% 0 in 0.00 W/m2 unknown
18:54 35.6 °F 33.8 °F 30.3 in SW 3.1 mph 3.7 mph 96% 0 in 0.00 W/m2 unknown
18:59 35.6 °F 33.8 °F 30.3 in WSW 3.1 mph 3.7 mph 97% 0 in 0.00 W/m2 unknown
19:04 35.6 °F 33.8 °F 30.4 in SW 3.1 mph 3.7 mph 97% 0 in 0.00 W/m2 unknown
19:09 35.6 °F 33.8 °F 30.4 in WSW 3.1 mph 3.7 mph 97% 0 in 0.00 W/m2 unknown
19:14 35.6 °F 33.8 °F 30.3 in WSW 3.1 mph 3.7 mph 97% 0 in 0.00 W/m2 unknown
19:19 35.6 °F 33.8 °F 30.3 in WSW 3.7 mph 3.7 mph 97% 0 in 0.00 W/m2 unknown
19:24 33.8 °F 33.8 °F 30.4 in West 4.3 mph 5 mph 97% 0 in 0.00 W/m2 unknown
19:29 33.8 °F 33.8 °F 30.4 in West 4.3 mph 6.2 mph 97% 0 in 0.00 W/m2 unknown
19:34 33.8 °F 33.8 °F 30.4 in West 6.2 mph 8.1 mph 97% 0 in 0.00 W/m2 unknown
19:39 33.8 °F 33.8 °F 30.4 in West 5.6 mph 8.1 mph 97% 0 in 0.00 W/m2 unknown
19:44 33.8 °F 33.8 °F 30.4 in West 6.2 mph 6.8 mph 97% 0 in 0.00 W/m2 unknown
19:49 33.8 °F 33.8 °F 30.4 in WSW 3.1 mph 6.8 mph 97% 0 in 0.00 W/m2 unknown
19:54 33.8 °F 33.8 °F 30.4 in WSW 4.3 mph 6.2 mph 97% 0 in 0.00 W/m2 unknown
19:59 33.8 °F 33.8 °F 30.4 in West 5 mph 6.2 mph 97% 0 in 0.00 W/m2 unknown
20:04 33.8 °F 33.8 °F 30.4 in South 3.7 mph 6.2 mph 97% 0 in 0.00 W/m2 unknown
20:09 33.8 °F 33.8 °F 30.4 in SSW 4.3 mph 5 mph 97% 0 in 0.00 W/m2 unknown
20:14 33.8 °F 33.8 °F 30.4 in SW 3.1 mph 5 mph 97% 0 in 0.00 W/m2 unknown
20:19 33.8 °F 33.8 °F 30.4 in WSW 2.5 mph 5 mph 97% 0 in 0.00 W/m2 unknown
20:24 33.8 °F 33.8 °F 30.4 in WSW 3.1 mph 3.7 mph 97% 0 in 0.00 W/m2 unknown
20:29 33.8 °F 33.8 °F 30.4 in WSW 3.1 mph 3.7 mph 97% 0 in 0.00 W/m2 unknown
20:34 33.8 °F 33.8 °F 30.4 in WSW 3.1 mph 3.7 mph 97% 0 in 0.00 W/m2 unknown
20:39 33.8 °F 33.8 °F 30.4 in SW 2.5 mph 3.7 mph 97% 0 in 0.00 W/m2 unknown
20:44 33.8 °F 33.8 °F 30.4 in WSW 2.5 mph 3.7 mph 97% 0 in 0.00 W/m2 unknown
20:49 33.8 °F 32 °F 30.4 in SSW 1.2 mph 3.1 mph 97% 0 in 0.00 W/m2 unknown
20:54 33.8 °F 32 °F 30.4 in SW 1.2 mph 2.5 mph 97% 0 in 0.00 W/m2 unknown
20:59 33.8 °F 33.8 °F 30.4 in WSW 3.1 mph 3.7 mph 98% 0 in 0.00 W/m2 unknown
21:04 33.8 °F 32 °F 30.4 in West 3.1 mph 3.7 mph 97% 0 in 0.00 W/m2 unknown
21:09 33.8 °F 32 °F 30.4 in North 2.5 mph 3.7 mph 97% 0 in 0.00 W/m2 unknown
21:14 33.8 °F 32 °F 30.4 in North 1.9 mph 3.1 mph 97% 0 in 0.00 W/m2 unknown
21:19 33.8 °F 32 °F 30.4 in West 1.9 mph 3.1 mph 98% 0 in 0.00 W/m2 unknown
21:24 33.8 °F 32 °F 30.4 in SSW 1.9 mph 3.7 mph 98% 0 in 0.00 W/m2 unknown
21:29 33.8 °F 32 °F 30.4 in South 1.9 mph 2.5 mph 98% 0 in 0.00 W/m2 unknown
21:34 33.8 °F 32 °F 30.4 in East 3.1 mph 5 mph 98% 0 in 0.00 W/m2 unknown
21:39 32 °F 32 °F 30.4 in ENE 3.1 mph 5 mph 98% 0 in 0.00 W/m2 unknown
21:44 32 °F 32 °F 30.4 in NE 3.1 mph 3.7 mph 98% 0 in 0.00 W/m2 unknown
21:49 32 °F 32 °F 30.4 in ENE 1.9 mph 3.7 mph 98% 0 in 0.00 W/m2 unknown
21:54 32 °F 32 °F 30.4 in ENE 1.9 mph 3.7 mph 98% 0 in 0.00 W/m2 unknown
21:59 32 °F 32 °F 30.4 in SW 2.5 mph 3.7 mph 97% 0 in 0.00 W/m2 unknown
22:04 32 °F 32 °F 30.4 in North 3.7 mph 5 mph 97% 0 in 0.00 W/m2 unknown
22:09 32 °F 32 °F 30.4 in ENE 4.3 mph 6.8 mph 98% 0 in 0.00 W/m2 unknown
22:14 32 °F 32 °F 30.4 in ENE 9.3 mph 11.8 mph 98% 0 in 0.00 W/m2 unknown
22:19 32 °F 32 °F 30.4 in East 6.8 mph 11.8 mph 98% 0 in 0.00 W/m2 unknown
22:24 32 °F 32 °F 30.4 in NE 2.5 mph 8.7 mph 98% 0 in 0.00 W/m2 unknown
22:29 32 °F 32 °F 30.4 in NW 2.5 mph 3.7 mph 98% 0 in 0.00 W/m2 unknown
22:34 32 °F 32 °F 30.4 in NNE 3.7 mph 5 mph 98% 0 in 0.00 W/m2 unknown
22:39 32 °F 32 °F 30.4 in ENE 3.7 mph 5 mph 98% 0 in 0.00 W/m2 unknown
22:44 32 °F 30.2 °F 30.4 in ENE 3.7 mph 5 mph 98% 0 in 0.00 W/m2 unknown
22:49 32 °F 30.2 °F 30.4 in ENE 2.5 mph 5 mph 98% 0 in 0.00 W/m2 unknown
22:54 32 °F 30.2 °F 30.4 in SW 4.3 mph 5 mph 98% 0 in 0.00 W/m2 unknown
22:59 32 °F 30.2 °F 30.4 in SW 5 mph 5 mph 98% 0 in 0.00 W/m2 unknown
23:04 32 °F 30.2 °F 30.4 in WSW 3.7 mph 5 mph 98% 0 in 0.00 W/m2 unknown
23:09 32 °F 30.2 °F 30.4 in WSW 3.1 mph 3.7 mph 98% 0 in 0.00 W/m2 unknown
23:14 32 °F 30.2 °F 30.4 in WSW 1.9 mph 3.7 mph 98% 0 in 0.00 W/m2 unknown
23:19 32 °F 30.2 °F 30.4 in ESE 5.6 mph 6.8 mph 98% 0 in 0.00 W/m2 unknown
23:24 30.2 °F 30.2 °F 30.4 in ESE 7.5 mph 8.1 mph 98% 0 in 0.00 W/m2 unknown
23:29 30.2 °F 30.2 °F 30.4 in ESE 5 mph 8.1 mph 98% 0 in 0.00 W/m2 unknown
23:34 30.2 °F 30.2 °F 30.4 in SE 3.1 mph 6.2 mph 98% 0 in 0.00 W/m2 unknown
23:39 30.2 °F 30.2 °F 30.4 in SE 2.5 mph 3.7 mph 98% 0 in 0.00 W/m2 unknown
23:44 30.2 °F 30.2 °F 30.4 in WSW 3.1 mph 3.7 mph 98% 0 in 0.00 W/m2 unknown
23:49 30.2 °F 30.2 °F 30.4 in WSW 1.9 mph 3.1 mph 98% 0 in 0.00 W/m2 unknown
23:54 30.2 °F 30.2 °F 30.4 in WSW 1.9 mph 2.5 mph 98% 0 in 0.00 W/m2 unknown
23:59 30.2 °F 30.2 °F 30.4 in SW 1.9 mph 3.1 mph 98% 0 in 0.00 W/m2 unknown
Stazione Meteorologica MeteoMincio Rivalta s/M (MN)
Con i complimenti di Weather Underground - 2 mb



METEO PILLOLE
Il ghiacciaio più meridionale d'Europa
Ghiacciaio del Calderone, Teramo, Abruzzo, Italia:
Definito "fossile" perchè la parte di ghiaccio vivo è quasi totalmente ricoperta di ghiaia, comunque ospita nevai perenni. Si estende tra circa 2650 m e circa 2850 m di quota sotto la vetta del Corno Grande, cima più alta dell'Appennino (2912 m), gruppo montuoso del Gran Sasso d'Italia.
Share

Non seguire questo link o sarai bannato dal sito!